{"data":{"norad_id":68215,"epoch":"2026-09-20T02:56:18.873888Z","epoch_age_seconds":84236,"freshness":"FRESH","line1":"1 68215U 26053J   26263.12244067  .00013918  00000+0  43245-3 0  9995","line2":"2 68215  97.2861 136.8735 0001203  99.3960 260.7418 15.33458900 29997","mean_motion":15.334589,"eccentricity":0.0001203,"inclination_deg":97.2861,"raan_deg":136.8735,"arg_perigee_deg":99.396,"mean_anomaly_deg":260.7418,"bstar":0.00043245,"rev_number":2999,"period_min":93.905353446382,"perigee_km":464.67852842019,"apogee_km":466.32510791984,"semimajor_km":6843.63881817,"source":"CELESTRAK","updated_at":"2026-09-20T09:00:43.834186Z"}}